{"data":{"norad_id":64513,"epoch":"2026-05-24T23:13:15.466368Z","epoch_age_seconds":67901,"freshness":"FRESH","line1":"1 64513U 25134P   26144.96754012  .00001897  00000+0  26696-3 0  9991","line2":"2 64513  51.9000 245.2885 0001852 117.5967 242.5184 14.81660190 51516","mean_motion":14.8166019,"eccentricity":0.0001852,"inclination_deg":51.9,"raan_deg":245.2885,"arg_perigee_deg":117.5967,"mean_anomaly_deg":242.5184,"bstar":0.00026696,"rev_number":5151,"period_min":97.188276348304,"perigee_km":622.79180336893,"apogee_km":625.38542773693,"semimajor_km":7002.2256155529,"source":"CELESTRAK","updated_at":"2026-05-25T13:38:04.574638Z"}}